Theta_e
335 335 336 335 336 337 337 337 338 338 337 336 335 335 335 334 334 333 334 332 330 331 327 330 325 327 326 323 329 328 327 331 323 323 326 329 330 333 335 337 333 330 324
334 334 335 335 335 336 335 336 337 337 337 334 334 334 333 332 333 333 331 331 330 330 329 328 322 325 326 325 329 330 331 332 325 321 326 325 326 328 329 328 325 327 325
333 333 334 334 334 334 335 336 336 336 336 335 335 333 331 332 333 333 331 331 332 331 329 327 326 329 323 328 330 329 328 327 327 324 320 322 322 324 322 324 323 323 324
331 331 332 333 334 335 336 336 335 335 335 335 333 332 332 332 332 331 332 333 332 331 329 327 329 329 329 330 330 330 330 328 324 319 319 318 318 319 320 317 315 318 318
329 331 332 333 334 334 335 335 335 334 334 333 332 332 333 332 331 333 333 332 331 330 330 331 328 326 322 325 329 328 330 327 322 318 317 316 314 314 314 316 315 315 316
330 330 332 332 332 333 334 334 335 334 333 333 332 331 330 329 307 313 325 331 331 329 326 329 327 320 318 314 314 317 325 328 322 319 318 316 314 313 315 315 313 312 308
330 330 331 331 331 332 333 333 333 334 335 333 333 328 326 321 303 304 313 332 331 326 326 328 327 326 324 324 312 312 313 312 317 323 319 319 314 315 315 314 314 313 310
330 330 330 330 330 332 332 332 332 333 333 331 329 325 324 321 301 302 309 332 331 328 326 328 329 326 326 322 323 325 324 326 327 325 324 324 321 318 318 317 314 312 311
329 329 330 329 330 331 331 332 332 331 331 328 325 323 323 326 301 302 314 331 327 325 326 328 324 323 305 305 321 321 325 323 308 308 309 304 304 304 311 315 312 311 309
329 330 331 330 330 331 332 331 332 331 330 327 324 324 316 329 302 301 316 327 324 323 324 322 309 316 299 302 318 317 315 317 318 317 314 308 312 308 308 317 315 312 312
330 331 332 331 332 333 332 332 332 330 329 328 327 326 328 325 320 302 307 326 324 323 322 321 316 299 299 301 307 319 314 316 312 317 318 317 316 317 317 320 321 316 316
331 331 331 332 331 331 330 331 330 330 327 325 325 325 326 326 306 302 303 307 311 323 320 321 310 297 298 299 307 298 301 309 317 316 315 314 315 316 320 318 319 321 323
330 331 331 331 331 332 328 330 328 329 327 321 320 322 322 323 317 299 298 300 304 321 322 311 297 295 296 300 298 300 305 317 316 314 314 314 317 318 320 319 320 323 323
330 331 331 331 330 331 330 329 327 327 324 319 320 322 321 321 320 320 317 314 304 308 303 304 304 305 306 306 309 314 318 318 316 317 316 318 319 318 320 317 317 320 320
331 331 331 331 330 330 330 328 328 330 323 322 324 325 321 319 320 312 314 319 320 311 311 314 314 315 315 316 318 318 319 318 318 318 318 318 318 319 317 320 321 321 320
330 329 330 330 330 329 325 320 297 302 301 303 303 315 323 304 299 298 298 297 298 300 316 316 314 314 315 317 317 318 319 316 320 320 320 322 321 322 321 323 322 321 320
329 330 329 327 330 328 326 324 324 309 296 296 296 298 302 303 297 295 294 294 295 304 318 317 316 316 318 319 320 321 319 321 324 324 323 325 324 324 320 322 320 320 320
331 310 329 330 330 329 328 327 328 326 324 324 299 303 294 294 295 293 294 300 316 314 320 319 319 319 320 321 321 323 325 325 325 325 325 324 324 323 321 321 321 321 321
329 327 329 330 330 327 329 328 326 328 327 326 319 304 294 291 291 292 294 324 323 322 323 321 322 321 322 323 324 326 326 326 325 325 325 324 324 323 322 322 322 304 309
328 312 318 329 329 329 329 327 326 326 327 327 326 325 309 307 314 311 312 324 323 323 324 325 325 324 323 323 325 326 326 324 325 325 326 326 326 326 324 323 323 322 321
327 326 310 327 328 328 328 327 327 326 324 326 327 323 301 325 324 322 318 320 325 325 324 324 325 327 327 327 326 325 324 325 325 325 327 327 327 326 327 327 327 326 326
327 326 325 327 327 327 328 328 328 327 326 323 325 320 291 325 328 327 325 325 326 328 328 327 325 326 327 327 327 327 327 326 327 328 328 328 328 327 327 327 326 326 326
327 326 326 327 328 314 325 327 327 327 327 326 324 322 313 322 327 328 329 329 328 328 329 330 328 326 326 327 328 328 327 327 329 329 328 328 327 327 327 326 326 325 325
326 326 327 328 328 328 327 327 327 312 326 327 326 325 322 323 325 328 329 331 331 331 330 329 329 329 330 329 328 328 328 328 329 329 329 328 326 321 326 325 325 325 324
324 326 327 327 327 328 328 329 329 329 328 328 328 328 327 326 325 326 328 330 330 331 331 330 330 330 331 331 331 331 319 297 320 313 328 327 326 325 324 323 323 324 326
305 310 312 315 320 324 325 324 324 325 324 325 326 327 328 329 329 328 327 327 327 328 330 330 331 330 330 331 331 316 297 294 308 296 325 329 328 327 327 327 327 326 326
Wind_Speed
13 12 12 10 10 9 8 7 7 7 7 7 8 9 9 8 7 6 5 4 4 3 4 7 5 3 5 3 5 5 5 4 5 3 2 2 3 3 7 8 10 8 11
13 13 12 10 9 8 7 7 7 7 7 8 8 8 8 7 7 6 5 4 5 5 5 4 4 4 6 6 7 7 5 4 8 9 4 2 3 4 6 10 7 8 10
14 13 11 10 9 8 8 7 7 8 8 7 8 8 8 8 8 6 4 5 5 5 5 5 7 8 5 6 5 5 5 5 7 8 4 2 4 3 6 8 9 9 7
14 13 11 9 8 8 8 7 7 8 8 8 7 8 7 6 6 5 4 4 4 4 4 2 4 5 6 7 6 6 7 9 9 6 5 4 3 4 7 10 8 8 9
13 12 10 9 8 8 8 7 7 8 8 7 7 5 5 6 4 5 4 4 5 5 5 5 3 4 3 5 6 8 10 9 7 7 6 7 6 4 9 8 12 10 9
13 11 10 9 9 8 8 7 8 8 7 7 6 7 6 3 4 5 5 5 5 5 5 6 6 7 6 5 6 7 9 12 12 8 9 10 7 8 7 11 14 13 7
12 11 10 10 9 8 8 7 8 8 7 7 7 7 6 5 5 6 5 6 6 5 5 6 6 4 5 6 7 8 8 8 9 10 12 11 11 12 10 11 14 10 7
12 12 10 9 9 9 8 8 7 6 6 5 7 6 6 4 3 6 4 5 6 6 4 3 4 7 7 6 7 9 9 9 10 8 11 15 14 10 10 10 11 11 8
13 12 11 10 9 9 9 8 7 7 7 6 6 6 6 5 3 5 5 5 6 5 4 4 3 4 8 11 6 6 10 8 8 13 13 12 16 13 12 12 10 13 7
13 12 11 10 9 9 8 8 6 7 7 7 7 6 5 6 4 2 2 4 6 4 4 4 5 6 8 9 8 9 9 10 14 13 11 12 14 11 8 6 11 12 9
12 11 10 10 9 9 9 7 7 7 7 7 7 6 6 4 4 3 4 3 4 4 3 3 2 7 8 8 8 8 10 11 13 11 10 9 9 8 6 4 5 7 8
12 12 10 9 7 8 9 8 7 8 8 7 7 5 5 5 5 3 5 4 4 4 3 3 4 7 9 9 7 13 16 12 9 9 9 9 8 8 8 5 6 5 2
12 11 9 9 8 9 9 9 7 7 7 6 5 5 5 4 3 4 7 6 4 4 3 6 9 9 11 10 12 13 10 9 9 9 9 7 8 9 9 8 4 4 6
13 11 9 9 9 8 7 6 6 6 6 6 5 6 5 4 3 3 4 5 7 7 8 7 6 6 9 8 7 7 6 6 7 9 9 9 8 9 9 6 5 6 3
12 10 10 7 8 8 6 4 5 6 6 7 6 5 6 5 4 5 5 5 5 6 9 6 5 5 6 5 4 5 7 7 7 7 9 9 10 9 7 8 6 7 5
11 10 9 8 8 7 7 5 9 5 5 5 3 2 5 7 11 10 9 10 12 10 5 6 6 5 6 6 5 6 6 6 7 8 9 10 11 10 9 8 6 7 7
12 11 9 8 8 8 7 7 7 5 8 8 5 4 3 10 9 10 10 10 6 4 5 5 6 6 5 5 6 7 7 7 10 10 10 10 9 9 8 8 8 8 8
13 12 10 9 9 9 8 7 7 8 8 7 7 4 7 9 11 12 12 8 4 3 5 6 6 7 7 7 6 7 8 8 8 8 8 8 8 8 9 8 8 9 8
12 10 10 9 9 9 9 8 7 7 7 8 7 5 8 9 8 6 9 6 7 6 6 6 6 7 7 8 8 8 9 9 8 8 8 8 7 8 8 8 9 8 7
12 12 11 9 8 9 8 8 7 7 7 8 8 8 7 6 6 6 5 7 6 6 5 6 7 8 8 7 6 7 7 6 8 7 8 8 8 9 9 10 9 9 9
10 10 9 9 9 9 9 10 8 8 8 7 8 9 11 10 9 9 9 9 7 7 7 7 7 8 8 9 10 9 9 9 9 9 9 9 9 10 10 10 10 10 10
10 10 11 10 8 8 9 9 9 9 8 8 7 7 8 8 7 8 9 9 9 8 7 7 7 8 8 9 9 10 10 11 11 11 11 11 11 11 11 11 11 11 11
8 9 9 8 8 7 7 8 8 8 8 8 8 8 9 9 8 8 8 8 8 9 9 8 9 8 9 9 9 10 11 11 11 11 11 11 11 11 11 11 12 12 12
5 7 8 6 7 7 6 6 5 4 6 7 7 7 8 8 9 9 8 7 8 8 8 9 10 12 11 11 10 11 11 11 10 12 16 12 12 12 12 13 13 15 14
7 4 5 5 4 3 3 3 3 3 3 4 3 3 4 4 5 5 5 6 6 7 9 9 9 12 16 18 16 17 14 10 15 12 12 16 17 18 16 14 15 14 16
15 13 9 9 9 7 8 7 6 6 5 5 4 3 3 1 1 3 3 4 5 6 7 7 9 14 15 14 18 17 8 8 12 12 15 14 15 15 15 18 22 16 18
Wind_Direction
134 133 131 128 126 127 133 141 146 146 152 165 168 170 169 176 170 179 186 158 191 166 175 203 182 170 175 186 217 220 223 205 140 100 104 129 52 93 151 129 137 125 129
132 131 128 131 132 134 140 140 145 144 160 161 164 162 166 167 173 185 178 168 186 203 186 179 183 171 184 187 207 213 217 165 143 141 113 82 70 68 107 109 111 121 134
138 134 136 137 141 143 140 138 145 153 158 161 162 159 166 170 176 177 175 181 201 185 201 212 197 208 187 195 196 183 164 131 132 133 113 88 73 89 93 100 107 106 126
139 142 140 145 145 142 141 147 154 159 158 160 153 158 173 173 178 167 182 158 144 156 188 182 232 199 199 188 179 166 154 139 126 115 108 106 95 75 106 118 103 110 116
144 144 144 143 140 140 147 153 154 165 159 153 159 153 165 162 165 164 137 134 147 145 149 138 126 124 110 162 173 160 162 140 134 130 118 109 111 123 130 125 113 110 101
146 147 145 146 146 150 151 154 165 161 155 155 155 136 123 124 104 118 145 137 141 152 155 144 121 109 110 138 117 164 163 156 150 141 135 139 136 117 128 130 123 122 107
154 149 151 153 156 155 154 159 159 159 159 157 135 122 124 112 93 132 142 119 122 142 151 158 156 119 121 118 102 109 96 84 133 142 143 141 137 141 132 131 126 122 118
160 159 155 160 157 155 161 152 141 151 140 140 124 119 121 107 119 151 157 131 125 129 144 174 196 162 148 142 147 143 150 153 139 146 145 146 143 138 124 118 114 102 90
166 166 164 166 162 162 159 145 134 142 138 134 128 130 124 126 162 168 197 142 125 120 133 139 139 157 153 159 161 156 150 105 72 104 117 110 120 116 126 122 128 132 127
173 173 173 172 173 160 150 144 137 147 142 136 133 120 119 136 176 203 164 121 125 121 114 97 107 126 144 150 145 153 136 133 124 121 107 95 113 110 107 132 144 142 136
178 176 177 177 172 153 143 143 148 147 138 138 127 128 132 134 113 98 82 112 129 130 133 123 127 132 138 140 139 149 137 133 125 128 125 123 129 120 118 111 110 136 144
178 179 175 167 163 153 142 146 151 147 140 140 133 129 116 123 73 94 93 102 134 132 138 130 135 139 124 120 114 123 123 124 127 129 130 135 137 136 143 114 109 107 30
178 176 168 161 156 152 147 150 155 162 158 142 146 156 138 124 103 87 85 104 96 125 133 119 127 116 107 95 120 123 126 132 134 136 139 141 150 134 137 118 104 132 69
180 178 165 160 156 155 153 156 160 175 147 155 174 152 150 136 138 149 127 111 106 89 101 112 123 106 97 113 124 126 116 121 133 136 139 136 128 146 156 147 165 171 153
175 173 172 155 168 153 151 153 172 183 153 168 182 165 161 174 183 156 147 145 131 120 120 119 111 113 126 133 113 117 123 128 133 126 140 145 146 155 162 177 182 176 200
172 173 172 165 165 157 155 141 43 45 124 93 136 172 119 96 131 136 127 121 128 145 120 127 125 126 141 144 135 134 135 141 142 147 156 156 158 167 168 180 184 189 198
176 172 164 173 169 160 164 163 166 82 63 65 103 92 51 139 135 122 111 107 99 139 121 127 132 137 149 144 142 142 144 153 159 157 161 167 169 172 170 179 184 194 203
178 165 170 175 173 169 174 175 168 161 165 158 69 71 101 135 140 134 133 129 140 142 147 147 146 151 168 161 157 174 156 158 167 167 174 175 176 174 180 189 194 202 211
177 178 179 177 176 175 172 169 177 163 158 149 131 98 85 86 93 123 172 178 177 176 170 164 163 167 178 176 180 178 170 174 180 183 184 182 190 194 195 204 208 216 223
189 179 176 176 164 175 174 177 176 177 168 162 168 156 144 149 166 167 199 212 187 187 184 180 177 179 183 193 197 193 188 183 182 204 198 196 194 199 207 207 223 224 216
190 175 188 175 176 181 180 184 186 183 184 183 180 163 171 182 179 179 184 200 215 198 192 194 186 187 190 191 195 197 200 202 200 209 211 208 212 216 222 227 227 225 236
189 180 186 189 179 184 187 187 187 194 192 187 182 148 164 216 189 190 194 199 207 218 207 203 205 199 198 197 198 199 204 207 208 209 212 216 216 219 223 225 229 231 235
183 177 183 191 190 171 178 189 192 198 199 196 188 160 176 206 210 206 208 209 208 210 210 210 214 212 211 209 209 211 212 213 211 208 212 214 217 220 223 228 231 235 237
171 173 172 188 192 181 185 187 197 219 226 208 196 191 187 198 209 217 220 216 217 217 217 219 223 224 218 217 216 218 222 224 221 217 220 221 224 220 233 233 235 238 244
48 92 119 128 140 146 129 157 149 162 196 228 220 217 212 214 226 232 238 239 239 235 234 236 237 236 233 231 229 227 227 205 223 224 222 229 235 237 240 237 241 243 243
39 39 41 51 63 78 80 68 70 79 81 76 68 55 43 21 338 327 311 282 268 264 261 256 249 250 257 254 250 251 246 218 221 230 235 239 237 240 241 242 246 246 243